{"data":{"norad_id":68886,"intl_designator":"2026-095Y","name":"KUIPER-00505","alt_names":[],"object_type":"PAYLOAD","status":"ACTIVE","operator":null,"country":"US","launch_date":"2026-04-28","launch_site_code":"AFETR","launch_vehicle":null,"mission":null,"orbit_class":"UNKNOWN","rcs_meters":null,"size_class":null,"mass_kg":null,"dimensions":null,"purposes":[],"wikipedia_slug":null,"has_3d_model":false,"image_url":null,"decayed_at":null,"tle_current":{"epoch":"2026-09-20T03:38:10.070880Z","epoch_age_seconds":45681,"freshness":"FRESH","line1":"1 68886U 26095Y   26263.15150545  .00002273  00000+0  32700-3 0  9991","line2":"2 68886  51.9007 185.7364 0000696  85.3608 274.7434 14.79936521 21747","mean_motion":14.79936521,"eccentricity":6.96e-5,"inclination_deg":51.9007,"raan_deg":185.7364,"arg_perigee_deg":85.3608,"mean_anomaly_deg":274.7434,"bstar":0.000327,"rev_number":2174,"period_min":97.301470675714,"perigee_km":629.03678103114,"apogee_km":630.01224751393,"semimajor_km":7007.6615142725,"source":"CELESTRAK","updated_at":"2026-09-20T09:00:24.540720Z"}}}